Meteo orario Alhos Vedros

Oggi, 30 Ottobre, Venerdi

Tempo Temperatura Precipitazioni Vento Pressione Umidità
00:00 +16°C° 0 mm 2 m/s 765 mm Hg 80%
01:00 +16°C° 0 mm 2 m/s 765 mm Hg 81%
02:00 +16°C° 0 mm 2 m/s 765 mm Hg 82%
03:00 +15°C° 0 mm 2 m/s 765 mm Hg 82%
04:00 +15°C° 0 mm 2 m/s 765 mm Hg 83%
05:00 +15°C° 0 mm 2 m/s 765 mm Hg 84%
06:00 +16°C° 0 mm 2 m/s 765 mm Hg 79%
07:00 +17°C° 0 mm 2 m/s 765 mm Hg 75%
08:00 +18°C° 0 mm 2 m/s 765 mm Hg 70%
09:00 +20°C° 0 mm 2 m/s 765 mm Hg 64%
10:00 +21°C° 0 mm 2 m/s 765 mm Hg 57%
11:00 +24°C° 0 mm 2 m/s 765 mm Hg 51%
12:00 +25°C° 0 mm 1 m/s 765 mm Hg 49%
13:00 +25°C° 0 mm 1 m/s 764 mm Hg 47%
14:00 +26°C° 0 mm 1 m/s 764 mm Hg 45%
15:00 +24°C° 0 mm 1 m/s 764 mm Hg 51%
16:00 +23°C° 0 mm 1 m/s 764 mm Hg 57%
17:00 +21°C° 0 mm 1 m/s 764 mm Hg 62%
18:00 +21°C° 0 mm 1 m/s 764 mm Hg 64%
19:00 +19°C° 0 mm 2 m/s 765 mm Hg 65%
20:00 +19°C° 0 mm 2 m/s 765 mm Hg 66%
21:00 +19°C° 0 mm 1 m/s 765 mm Hg 68%
22:00 +19°C° 0 mm 1 m/s 765 mm Hg 69%
23:00 +19°C° 0 mm 1 m/s 765 mm Hg 71%

Domani, 31 Ottobre, Sabato

Tempo Temperatura Precipitazioni Vento Pressione Umidità
00:00 +18°C° 0 mm 1 m/s 765 mm Hg 72%
01:00 +18°C° 0 mm 1 m/s 765 mm Hg 73%
02:00 +18°C° 0 mm 1 m/s 764 mm Hg 74%
03:00 +18°C° 0 mm 1 m/s 765 mm Hg 75%
04:00 +16°C° 0 mm 1 m/s 765 mm Hg 75%
05:00 +16°C° 0 mm 1 m/s 765 mm Hg 76%
06:00 +18°C° 0 mm 1 m/s 765 mm Hg 73%
07:00 +19°C° 0 mm 1 m/s 766 mm Hg 69%
08:00 +20°C° 0 mm 1 m/s 766 mm Hg 66%
09:00 +22°C° 0 mm 1 m/s 766 mm Hg 60%
10:00 +24°C° 0 mm 1 m/s 766 mm Hg 54%
11:00 +25°C° 0 mm 1 m/s 766 mm Hg 49%
12:00 +25°C° 0 mm 1 m/s 765 mm Hg 48%
13:00 +25°C° 0 mm 1 m/s 765 mm Hg 47%
14:00 +25°C° 0 mm 2 m/s 765 mm Hg 46%
15:00 +24°C° 0 mm 2 m/s 765 mm Hg 52%
16:00 +21°C° 0 mm 2 m/s 765 mm Hg 58%
17:00 +19°C° 0 mm 2 m/s 765 mm Hg 64%
18:00 +20°C° 0 mm 1 m/s 765 mm Hg 65%
19:00 +20°C° 0 mm 1 m/s 766 mm Hg 66%
20:00 +19°C° 0 mm 1 m/s 766 mm Hg 67%
21:00 +19°C° 0 mm 1 m/s 766 mm Hg 69%
22:00 +19°C° 0 mm 1 m/s 766 mm Hg 70%
23:00 +16°C° 0 mm 0 m/s 766 mm Hg 72%

Dopodomani, 1 Novenbre, Domenica

Tempo Temperatura Precipitazioni Vento Pressione Umidità
00:00 +16°C° 0 mm 0 m/s 766 mm Hg 73%
01:00 +16°C° 0 mm 0 m/s 766 mm Hg 74%
02:00 +16°C° 0 mm 0 m/s 765 mm Hg 75%
03:00 +16°C° 0 mm 0 m/s 765 mm Hg 75%
04:00 +18°C° 0 mm 1 m/s 765 mm Hg 74%
05:00 +18°C° 0 mm 1 m/s 765 mm Hg 74%
06:00 +19°C° 0 mm 1 m/s 765 mm Hg 72%
07:00 +18°C° 0 mm 0 m/s 765 mm Hg 69%
08:00 +18°C° 0 mm 0 m/s 766 mm Hg 67%
09:00 +20°C° 0 mm 0 m/s 766 mm Hg 62%
10:00 +23°C° 0 mm 1 m/s 765 mm Hg 58%
11:00 +24°C° 0 mm 1 m/s 765 mm Hg 54%
12:00 +24°C° 0 mm 1 m/s 765 mm Hg 55%
13:00 +24°C° 0 mm 1 m/s 764 mm Hg 55%
14:00 +25°C° 0 mm 1 m/s 764 mm Hg 56%
15:00 +23°C° 0 mm 1 m/s 764 mm Hg 61%
16:00 +22°C° 0 mm 1 m/s 764 mm Hg 67%
17:00 +21°C° 0 mm 1 m/s 764 mm Hg 73%
18:00 +20°C° 0 mm 1 m/s 764 mm Hg 75%
19:00 +20°C° 0 mm 1 m/s 764 mm Hg 77%
20:00 +20°C° 0 mm 1 m/s 764 mm Hg 80%
21:00 +19°C° 0 mm 1 m/s 764 mm Hg 82%
22:00 +19°C° 0 mm 1 m/s 764 mm Hg 84%
23:00 +19°C° 0 mm 1 m/s 764 mm Hg 86%

2 Novenbre, Lunedi

Tempo Temperatura Precipitazioni Vento Pressione Umidità
00:00 +18°C° 0 mm 1 m/s 764 mm Hg 87%
01:00 +16°C° 0 mm 0 m/s 763 mm Hg 88%
02:00 +16°C° 0 mm 0 m/s 763 mm Hg 89%
03:00 +16°C° 0 mm 0 m/s 763 mm Hg 90%
04:00 +16°C° 0 mm 0 m/s 763 mm Hg 90%
05:00 +16°C° 0 mm 0 m/s 763 mm Hg 91%
06:00 +17°C° 0 mm 0 m/s 763 mm Hg 88%
07:00 +18°C° 0 mm 0 m/s 764 mm Hg 85%
08:00 +19°C° 0 mm 0 m/s 764 mm Hg 82%
09:00 +20°C° 0 mm 0 m/s 764 mm Hg 76%
10:00 +23°C° 0 mm 1 m/s 764 mm Hg 71%
11:00 +24°C° 0 mm 1 m/s 763 mm Hg 65%
12:00 +25°C° 0 mm 1 m/s 763 mm Hg 65%
13:00 +25°C° 0 mm 2 m/s 763 mm Hg 65%
14:00 +25°C° 0 mm 2 m/s 763 mm Hg 64%
15:00 +23°C° 0 mm 2 m/s 763 mm Hg 71%
16:00 +21°C° 0 mm 2 m/s 763 mm Hg 77%
17:00 +20°C° 0 mm 2 m/s 763 mm Hg 83%
18:00 +20°C° 0 mm 2 m/s 763 mm Hg 85%
19:00 +19°C° 0 mm 2 m/s 764 mm Hg 87%
20:00 +19°C° 0 mm 2 m/s 764 mm Hg 89%
21:00 +19°C° 0 mm 3 m/s 764 mm Hg 88%
22:00 +17°C° 0 mm 5 m/s 764 mm Hg 87%
23:00 +17°C° 0 mm 6 m/s 765 mm Hg 86%

3 Novenbre, Martedi

Tempo Temperatura Precipitazioni Vento Pressione Umidità
00:00 +16°C° 0 mm 6 m/s 765 mm Hg 81%
01:00 +15°C° 0 mm 7 m/s 765 mm Hg 76%
02:00 +14°C° 0 mm 7 m/s 765 mm Hg 71%
03:00 +14°C° 0 mm 7 m/s 765 mm Hg 70%
04:00 +12°C° 0 mm 7 m/s 765 mm Hg 68%
05:00 +12°C° 0 mm 7 m/s 765 mm Hg 66%
06:00 +13°C° 0 mm 8 m/s 766 mm Hg 67%
07:00 +13°C° 0 mm 8 m/s 766 mm Hg 67%
08:00 +15°C° 0 mm 9 m/s 766 mm Hg 67%
09:00 +15°C° 0 mm 9 m/s 766 mm Hg 63%
10:00 +16°C° 0 mm 9 m/s 766 mm Hg 58%
11:00 +17°C° 0 mm 10 m/s 766 mm Hg 53%
12:00 +17°C° 0 mm 10 m/s 766 mm Hg 53%
13:00 +17°C° 0 mm 10 m/s 765 mm Hg 53%
14:00 +16°C° 0 mm 9 m/s 765 mm Hg 52%
15:00 +15°C° 0 mm 9 m/s 765 mm Hg 56%
16:00 +13°C° 0 mm 9 m/s 765 mm Hg 60%
17:00 +12°C° 0 mm 9 m/s 765 mm Hg 64%
18:00 +12°C° 0 mm 9 m/s 765 mm Hg 64%
19:00 +12°C° 0 mm 9 m/s 765 mm Hg 64%
20:00 +12°C° 0 mm 8 m/s 766 mm Hg 63%
21:00 +11°C° 0 mm 7 m/s 765 mm Hg 63%
22:00 +11°C° 0 mm 6 m/s 765 mm Hg 63%
23:00 +11°C° 0 mm 6 m/s 764 mm Hg 63%

4 Novenbre, Mercoledi

Tempo Temperatura Precipitazioni Vento Pressione Umidità
00:00 +10°C° 0 mm 5 m/s 764 mm Hg 64%
01:00 +10°C° 0 mm 5 m/s 764 mm Hg 64%
02:00 +10°C° 0 mm 5 m/s 763 mm Hg 64%
03:00 +10°C° 0 mm 5 m/s 763 mm Hg 63%
04:00 +10°C° 0 mm 6 m/s 763 mm Hg 62%
05:00 +10°C° 0 mm 6 m/s 762 mm Hg 60%
06:00 +10°C° 0 mm 6 m/s 762 mm Hg 57%
07:00 +11°C° 0 mm 7 m/s 762 mm Hg 54%
08:00 +12°C° 0 mm 7 m/s 762 mm Hg 51%
09:00 +14°C° 0 mm 7 m/s 762 mm Hg 49%
10:00 +15°C° 0 mm 7 m/s 761 mm Hg 47%
11:00 +16°C° 0 mm 7 m/s 761 mm Hg 45%
12:00 +16°C° 0 mm 7 m/s 760 mm Hg 45%
13:00 +16°C° 0 mm 7 m/s 760 mm Hg 46%
14:00 +16°C° 0 mm 7 m/s 759 mm Hg 47%
15:00 +15°C° 0 mm 7 m/s 758 mm Hg 48%
16:00 +14°C° 0 mm 7 m/s 758 mm Hg 50%
17:00 +14°C° 0 mm 6 m/s 757 mm Hg 51%
18:00 +13°C° 0 mm 6 m/s 757 mm Hg 54%
19:00 +13°C° 0 mm 6 m/s 757 mm Hg 56%
20:00 +13°C° 0 mm 6 m/s 756 mm Hg 59%
21:00 +11°C° 0.1 mm 6 m/s 756 mm Hg 63%
22:00 +11°C° 0.1 mm 6 m/s 755 mm Hg 67%
23:00 +11°C° 0.1 mm 6 m/s 754 mm Hg 71%
Mostrare altro

Abbiamo bisogno del tuo consenso

Meteoprog e i nostri fornitori di servizi possono memorizzare e accedere a dati personali come cookie, identificatori di dispositivi o altre tecnologie simili sul tuo dispositivo e possono elaborare tali dati per personalizzare i contenuti e gli annunci, nonché fornire funzionalità dei social media e analizzarne il traffico.

  • Archiviare e/o accedere alle informazioni sul tuo dispositivo

    Cookie, identificatori di dispositivi o altre informazioni possono essere memorizzati o resi accessibili sul tuo dispositivo per le finalità sopra indicate.

  • Annunci e contenuti personalizzati, misurazione di annunci e contenuti, approfondimenti sul pubblico e sviluppo di prodotti

    Gli annunci e i contenuti possono essere personalizzati in base a un profilo. È possibile aggiungere più dati per personalizzare meglio annunci e contenuti. È possibile misurare il rendimento degli annunci e dei contenuti. È possibile ricavare informazioni sul pubblico che ha visto gli annunci e i contenuti. Tali dati possono essere utilizzati per sviluppare o migliorare l'esperienza, i sistemi e il software dell'utente.

Cliccando su “Accetto”, acconsenti all'uso di cookie, identificatori di dispositivo, web beacon o altre tecnologie simili. Puoi modificare le impostazioni nel browser del tuo dispositivo.

Per determinati scopi, è possibile fare affidamento su interessi legali, piuttosto che sul consenso. Puoi approfondire questo argomento consultando la nostra Informativa sulla privacy e sui cookie.